Regional Weather Roundup
Issued by NWS

Home | Current Version | Previous Version | Text Only | Print | Product List | Glossary On
Versions: 1 2 3 4 5 6 7 8 9 10 11 12 13 14 15 16 17 18 19 20 21 22 23 24 25 26 27 28 29 30 31 32 33 34 35 36 37 38 39 40 41 42 43 44 45 46 47 48 49 50
000
ASUS44 KOUN 020010
RWROK

WEATHER ROUNDUP FOR OKLAHOMA
NATIONAL WEATHER SERVICE NORMAN OK
700 PM CDT MON SEP 01 2014

NOTE: "FAIR" INDICATES FEW OR NO CLOUDS BELOW 12,000 FEET WITH NO
      SIGNIFICANT WEATHER AND/OR OBSTRUCTIONS TO VISIBILITY.

OKZ001>007-009>012-014-015-017-020100-
NORTHWEST OKLAHOMA AND THE PANHANDLE

CITY           SKY/WX    TMP DP  RH WIND       PRES   REMARKS
GAGE           SUNNY     89  67  47 N9        29.83R HX  92
6HR MIN TEMP:  82; 6HR MAX TEMP:  91;

ENID/WOODRING  PTSUNNY   95  68  41 S21G29    29.72F HX  99
$$

OKZ016-021>023-033>039-044-045-020100-
SOUTHWEST OKLAHOMA

CITY           SKY/WX    TMP DP  RH WIND       PRES   REMARKS
LAWTON/REGL    SUNNY     98  64  32 S21G29    29.76S HX 100
6HR MIN TEMP:  93; 6HR MAX TEMP: 102;

LAWTON/FT SILL SUNNY     97  65  35 S25       29.76S HX  99
FREDERICK      SUNNY     99  62  29 S18G28    29.73S HX 100
CLINTON        SUNNY     97  64  33 S15G24    29.80S HX  99
HOBART         SUNNY     97  66  36 S17G26    29.77F HX 100
ALTUS AFB      SUNNY     98  67  36 S21G26    29.76S HX 102
$$

OKZ018>020-024>031-020100-
CENTRAL OKLAHOMA

CITY           SKY/WX    TMP DP  RH WIND       PRES   REMARKS
OKLAHOMA CITY  MOSUNNY   94  67  41 S21G31    29.79R HX  97
6HR MIN TEMP:  91; 6HR MAX TEMP:  98;

OKC/WILEY POST MOSUNNY   95  68  41 S17G26    29.79R HX  99
OKC/TINKER AFB SUNNY     92  69  47 S20G28    29.80S HX  97
STILLWATER     PTSUNNY   94  68  42 S17       29.75F HX  98
GUTHRIE        MOSUNNY   94  68  42 S17G23    29.77S HX  98
$$

OKZ008-013-054>072-020100-
NORTHEAST OKLAHOMA

CITY           SKY/WX    TMP DP  RH WIND       PRES   REMARKS
TULSA          MOCLDY    92  71  50 S22G29    29.76F HX  98
6HR MIN TEMP:  87; 6HR MAX TEMP:  97;

TULSA/JONES    MOCLDY    92  71  50 S13G24    29.79S HX  98
PONCA CITY     MOSUNNY   93  70  46 S12       29.72F HX  99
BARTLESVILLE   MOCLDY    77  76  96 CALM      29.76F
MUSKOGEE       CLEAR     88  70  55 S14       29.83S HX  93
$$

OKZ032-040>043-046>053-073>077-020100-
SOUTH CENTRAL/SOUTHEAST OKLAHOMA

CITY           SKY/WX    TMP DP  RH WIND       PRES   REMARKS
ARDMORE/DWNTWN SUNNY     90  64  43 S15       29.82S HX  91
MCALESTER      CLEAR     88  71  57 S7G20     29.84F HX  94
$$



USA.gov is the U.S. government's official web portal to all federal, state and local government web resources and services.